This demonstration page uses our WeatherBlox Daily Observations layout. Learn more.

Left ArrowRight Arrow

39.95238, -75.16362

Hourly Observations for May 12, 2018

Temp ( °F °C ) Dew Point ( °F °C ) Humidity (%) Winds ( mph kmh ) Pressure ( in mb ) Visibility ( mi km ) Precip ( " mm )
12:54 am 00:54 Cloudy 60 15.6 46 7.8 60 60 E 5 7 30.11 1020 10 16 0.00 0.03
1:54 am 01:54 Mostly Cloudy 58 14.4 46 7.8 65 65 E 6 9 30.09 1019 10 16 0.00 0.00
2:54 am 02:54 Cloudy 60 15.6 46 7.8 60 60 NNE 9 15 30.09 1019 10 16 0.00 0.00
3:35 am 03:35 Cloudy with Light Rain 58 14.4 50 10 75 75 N 13 20 30.12 1020 9 14 0.01 0.25
3:45 am 03:45 Cloudy with Rain 57 13.9 50 10 78 78 N 14 22 30.12 1020 6 10 0.03 0.76
3:51 am 03:51 Cloudy with Heavy Rain 57 14 50 10 77 77 N 15 24 30.15 1021 4 6 0.06 1.52
3:54 am 03:54 Cloudy with Heavy Rain 56 13.3 50 10 81 81 N 13 20 30.14 1021 4 6 0.09 2.29
4:54 am 04:54 Cloudy with Heavy Rain 53 11.7 52 11.1 96 96 E 12 19 30.07 1018 4 6 0.39 9.91
5:10 am 05:10 Cloudy with Light Rain 54 12.2 52 11.1 93 93 ENE 10 17 30.09 1019 6 10 0.07 1.78
5:24 am 05:24 Cloudy with Light Rain 54 12.2 52 11.1 93 93 ENE 10 17 30.09 1019 8 13 0.09 2.29
5:36 am 05:36 Cloudy with Heavy Rain 54 12.2 53 11.7 97 97 NNE 15 24 30.12 1020 4 6 0.10 2.54
5:54 am 05:54 Cloudy with Thunderstorms 54 12.2 52 11.1 93 93 NE 14 22 30.10 1019 3 5 0.34 8.64
6:05 am 06:05 Cloudy with Thunderstorms 53 11.7 52 11.1 96 96 NE 13 20 30.09 1019 6 10 0.03 0.76
6:14 am 06:14 Cloudy 53 11.7 52 11.1 96 96 ENE 10 17 30.12 1020 7 11 0.03 0.76
6:45 am 06:45 Cloudy 54 12.2 52 11.1 93 93 NE 9 15 30.12 1020 7 11 0.03 0.76
6:54 am 06:54 Cloudy 54 12.2 52 11.1 93 93 ENE 12 19 30.11 1020 7 11 0.03 0.76
6:56 am 06:56 Cloudy 54 12.2 52 11.1 93 93 ENE 9 15 30.12 1020 6 10 0.00 0.00
7:46 am 07:46 Cloudy with Mist and Fog 55 12.8 53 11.7 93 93 ENE 9 15 30.12 1020 6 10 0.00 0.00
7:54 am 07:54 Cloudy with Mist and Fog 55 12.8 53 11.7 93 93 ENE 14 22 30.11 1020 6 10 0.00 0.00
8:05 am 08:05 Cloudy 56 13.3 54 12.2 93 93 E 8 13 30.12 1020 10 16 0.00 0.00
8:54 am 08:54 Cloudy 58 14.4 55 12.8 90 90 E 8 13 30.11 1020 10 16 0.00 0.00
9:54 am 09:54 Cloudy 59 15 56 13.3 90 90 E 6 9 30.11 1020 10 16 0.00 0.00
10:54 am 10:54 Cloudy 61 16.1 56 13.3 84 84 NNE 7 11 30.11 1020 10 16 0.00 0.00
11:15 am 11:15 Cloudy 61 16.1 56 13.3 84 84 VRB 6 9 30.12 1020 9 14 0.00 0.00
11:50 am 11:50 Cloudy 63 17 57 14 83 83 E 5 7 30.06 1018 10 16 0.00 0.00
11:54 am 11:54 Cloudy 63 17.2 57 13.9 81 81 ENE 5 7 30.07 1018 10 16 0.00 0.00
12:52 pm 12:52 Cloudy 66 19 59 15 78 78 N 3 6 30.06 1018 10 16 0.00 0.00
12:54 pm 12:54 Cloudy 66 18.9 59 15 78 78 N 5 7 30.05 1018 10 16 0.00 0.00
1:54 pm 13:54 Cloudy 69 20.6 59 15 70 70 Calm 30.03 1017 10 16 0.00 0.00
2:46 pm 14:46 Mostly Cloudy 69 20.6 60 15.6 73 73 Calm 30.03 1017 10 16 0.00 0.00
2:54 pm 14:54 Mostly Cloudy 69 20.6 59 15 70 70 W 7 11 30.01 1016 10 16 0.00 0.00
3:22 pm 15:22 Mostly Cloudy 69 20.6 59 15 70 70 Calm 30.00 1016 10 16 0.00 0.00
3:54 pm 15:54 Mostly Cloudy 70 21.1 60 15.6 71 71 NNE 3 6 29.99 1016 10 16 0.00 0.00
4:54 pm 16:54 Mostly Cloudy 71 21.7 60 15.6 68 68 ENE 5 7 29.97 1015 10 16 0.00 0.00
5:54 pm 17:54 Mostly Cloudy 70 21.1 59 15 68 68 NNE 10 17 29.99 1016 10 16 0.00 0.00
6:54 pm 18:54 Mostly Cloudy 65 18.3 58 14.4 78 78 NE 15 24 30.01 1016 10 16 0.00 0.00
7:05 pm 19:05 Mostly Cloudy 64 17.8 57 13.9 78 78 NNE 18 30 30.03 1017 7 11 0.00 0.00
7:34 pm 19:34 Cloudy 63 17.2 56 13.3 78 78 NE 10 17 30.03 1017 8 13 0.00 0.00
7:47 pm 19:47 Cloudy with Thunderstorms 63 17.2 57 13.9 81 81 NE 15 24 30.00 1016 8 13 0.00 0.00
7:51 pm 19:51 Cloudy with Thunderstorms 63 17 57 14 83 83 NNE 9 15 30.03 1017 6 10 0.00 0.03
7:54 pm 19:54 Cloudy with Thunderstorms 62 16.7 57 13.9 84 84 NNW 10 17 30.06 1018 6 10 0.00 0.03
8:05 pm 20:05 Cloudy with Strong Thunderstorms 60 15.6 58 14.4 93 93 ENE 8 13 30.03 1017 1 1 0.32 8.13
8:20 pm 20:20 Cloudy with Thunderstorms 60 15.6 59 15 96 96 ENE 9 15 30.03 1017 3 5 0.52 13.21
8:27 pm 20:27 Cloudy with Nearby Thunderstorms 60 15.6 59 15 96 96 E 8 13 30.03 1017 4 6 0.52 13.21
8:39 pm 20:39 Mostly Cloudy with Light Rain 60 15.6 58 14.4 93 93 ENE 7 11 30.03 1017 5 8 0.52 13.21
8:54 pm 20:54 Cloudy with Rain 59 15 58 14.4 96 96 E 6 9 30.05 1018 3 5 0.53 13.46
9:04 pm 21:04 Mostly Cloudy with Rain 59 15 59 15 100 100 ESE 6 9 30.06 1018 3 4 0.03 0.76
9:51 pm 21:51 Cloudy with Mist and Fog 61 16 57 14 88 88 N 6 9 30.09 1019 6 10 0.11 2.79
9:54 pm 21:54 Cloudy with Mist and Fog 60 15.6 58 14.4 93 93 N 6 9 30.07 1018 6 10 0.11 2.79
10:12 pm 22:12 Cloudy 60 15.6 58 14.4 93 93 NE 7 11 30.06 1018 8 13 0.00 0.00
10:50 pm 22:50 Cloudy with Mist and Fog 59 15 57 14 94 94 NE 13 20 30.03 1017 6 10 0.00 0.00
10:54 pm 22:54 Cloudy with Mist and Fog 59 15 57 13.9 93 93 NE 12 19 30.03 1017 5 8 0.00 0.00
11:54 pm 23:54 Cloudy with Mist and Fog 58 14.4 56 13.3 93 93 E 8 13 30.08 1019 5 8 0.00 0.00

Powered by AerisWeather